Location: Newark
(45.2500°N, 7.5833°E)
Time: 14:19:35
(UTC+00:00)

Vanguard 3 - Pass Details

Date: 28 January 2020
Orbit: 508 x 3263 km, 33.3° (Epoch: 28 February)

Event Time Altitude Azimuth Distance (km) Brightness Sun altitude
Rises 12:12:49 0° 167° (SSE) 6,151 12.7 26.1°
Reaches altitude 10° 12:23:48 10° 132° (SE) 5,860 12.0 25.8°
Maximum altitude 12:25:52 10° 126° (SE) 5,928 11.9 25.7°
Drops below altitude 10° 12:28:00 10° 119° (ESE) 6,033 11.9 25.7°
Sets 12:40:40 0° 87° (E) 7,221 11.8 25.1°
